Henderson, KY

5:28 PM CST on November 20, 2019 (GMT -0600)
Henderson City-County

Weather History for KEHR - September, 2019

Change the Weather History Date:

Saturday, September 7, 2019

  Actual Average Record
Temperature  
Mean Temperature 68 °F -  
Max Temperature 79 °F 85 °F 99 °F (1939)
Min Temperature 57 °F 61 °F 42 °F (1988)
Cooling Degree Days 3    
Growing Degree Days 18 (Base 50)    
Moisture  
Dew Point 60 °F    
Average Humidity 77    
Maximum Humidity 100    
Minimum Humidity 56    
Precipitation  
Precipitation 0.00 in - - ()
Sea Level Pressure  
Sea Level Pressure 30.04 in    
Wind  
Wind Speed 5 mph (North)    
Max Wind Speed 9 mph    
Max Gust Speed -    
Visibility 10 miles    
Events      
Averages and records for this station are not official NWS values.
T = Trace of Precipitation, MM = Missing Value Source: NWS Daily Summary

Daily Weather History Graph

Daily Weather History Graph

Search for Another Location

Airport or City:

Astronomy

Sep. 07, 2019 Rise Set
Actual Time 6:25 AM CDT 7:11 PM CDT
Civil Twilight 5:59 AM CDT 7:37 PM CDT
Nautical Twilight 5:27 AM CDT 8:09 PM CDT
Astronomical Twilight 4:55 AM CDT 8:41 PM CDT
Moon 3:21 PM CDT (9/7) 12:22 AM CDT (9/7)
Length of Visible Light 13h 38m
Length of Day
12h 45m
Waxing Gibbous, 66% of the Moon is Illuminated
Sep 7
Waxing Gibbous
Sep 13
Full
Sep 21
Last Quarter
Sep 28
New
Oct 5
First Quarter

Hourly Weather History & Observations

Time (CDT) Temp. Dew Point Humidity Pressure Visibility Wind Dir Wind Speed Gust Speed Precip Events Conditions
12:56 AM 66.9 °F 60.1 °F 79% 30.00 in 10.0 mi North 5.8 mph - N/A   Clear
1:56 AM 66.0 °F 60.1 °F 81% 30.01 in 10.0 mi North 3.5 mph - N/A   Clear
2:56 AM 64.9 °F 61.0 °F 87% 30.01 in 10.0 mi North 8.1 mph - N/A   Clear
3:56 AM 64.0 °F 60.1 °F 87% 30.02 in 10.0 mi North 4.6 mph - N/A   Clear
4:56 AM 61.0 °F 59.0 °F 93% 30.03 in 10.0 mi Calm Calm - N/A   Clear
5:56 AM 60.1 °F 57.9 °F 93% 30.04 in 10.0 mi NW 4.6 mph - N/A   Clear
6:56 AM 57.0 °F 57.0 °F 100% 30.06 in 8.0 mi Calm Calm - N/A   Clear
7:56 AM 64.0 °F 61.0 °F 90% 30.07 in 10.0 mi NW 4.6 mph - N/A   Clear
8:56 AM 68.0 °F 61.0 °F 78% 30.09 in 10.0 mi North 4.6 mph - N/A   Clear
9:56 AM 71.1 °F 61.0 °F 70% 30.09 in 10.0 mi Variable 6.9 mph - N/A   Clear
10:56 AM 73.9 °F 61.0 °F 64% 30.08 in 10.0 mi Variable 5.8 mph - N/A   Partly Cloudy
11:56 AM 73.9 °F 60.1 °F 62% 30.06 in 10.0 mi Calm Calm - N/A   Partly Cloudy
12:56 PM 75.0 °F 60.1 °F 60% 30.05 in 10.0 mi NNE 9.2 mph - N/A   Clear
1:56 PM 75.9 °F 61.0 °F 60% 30.03 in 10.0 mi ENE 8.1 mph - N/A   Clear
2:56 PM 77.0 °F 61.0 °F 58% 30.01 in 10.0 mi NE 5.8 mph - N/A   Clear
3:56 PM 79.0 °F 62.1 °F 56% 30.01 in 10.0 mi NNE 9.2 mph - N/A   Clear
4:56 PM 78.1 °F 61.0 °F 56% 30.01 in 10.0 mi NE 8.1 mph - N/A   Clear
5:56 PM 77.0 °F 61.0 °F 58% 30.01 in 10.0 mi North 5.8 mph - N/A   Clear
6:56 PM 73.9 °F 60.1 °F 62% 30.01 in 10.0 mi North 4.6 mph - N/A   Clear
7:56 PM 71.1 °F 61.0 °F 70% 30.01 in 10.0 mi NNE 3.5 mph - N/A   Clear
8:56 PM 63.0 °F 61.0 °F 93% 30.04 in 10.0 mi Calm Calm - N/A   Clear
9:56 PM 61.0 °F 60.1 °F 97% 30.05 in 10.0 mi Calm Calm - N/A   Clear
10:56 PM 60.1 °F 59.0 °F 96% 30.04 in 10.0 mi Calm Calm - N/A   Clear
11:56 PM 59.0 °F 57.9 °F 96% 30.04 in 10.0 mi Calm Calm - N/A   Clear